Probability
0 0 0 0 0 0 0 0 0 0 0 0 0 0 0 0 0 0 0 0 0 0 0 0 0 0 0 0 0 0 0 0 0 0 0 0 0 0
0 0 0 0 0 0 0 0 0 0 0 0 0 0 0 0 0 0 0 0 0 0 0 0 0 0 0 0 0 0 0 0 0 0 0 0 0 0
0 0 0 0 0 0 0 0 0 0 0 0 0 0 0 0 0 0 0 0 0 0 0 0 0 0 0 0 0 0 0 0 0 0 0 0 0 0
0 0 0 0 0 0 0 0 0 0 0 0 0 0 0 0 0 0 0 0 0 0 0 0 0 0 0 0 0 0 0 0 0 0 0 0 0 0
0 0 0 0 0 0 0 0 0 0 0 0 0 0 0 0 0 0 0 0 0 0 0 0 0 0 0 0 0 0 0 0 0 0 0 0 0 0
0 0 0 0 0 0 0 0 0 0 0 0 0 0 0 0 0 0 0 0 0 0 0 0 0 0 0 0 0 0 0 0 0 0 0 0 0 0
0 0 0 0 0 0 0 0 0 0 0 0 0 0 0 0 0 0 0 0 0 0 0 0 0 0 0 0 0 0 0 0 0 0 0 0 0 0
0 0 0 0 0 0 0 0 0 0 0 0 0 0 0 0 0 0 0 0 0 0 0 0 0 0 0 0 0 0 0 0 0 0 0 0 0 0
0 0 0 0 0 0 0 0 0 0 0 0 0 0 0 0 0 0 0 0 0 0 0 0 0 0 0 0 0 0 0 0 0 0 0 0 0 0
0 0 0 0 0 0 0 0 0 0 0 0 0 0 0 0 0 0 0 0 0 0 0 0 0 0 0 0 0 0 0 0 0 0 0 0 0 0
0 0 0 0 0 0 0 0 0 0 0 0 0 0 0 0 0 0 0 0 0 0 0 0 0 0 0 0 0 0 0 0 0 0 0 0 0 0
0 0 0 0 0 0 0 0 0 0 0 0 0 0 0 0 0 0 0 0 0 0 0 0 0 0 0 0 0 0 0 0 0 0 0 0 0 0
0 0 0 0 0 0 0 0 0 0 0 0 0 0 0 0 0 0 0 0 0 0 0 0 0 0 0 0 0 0 0 0 0 0 0 0 0 0
0 0 0 0 0 0 0 0 0 0 0 0 0 0 0 0 0 0 0 0 0 0 0 0 0 0 0 0 0 0 0 0 0 0 0 0 0 0
0 0 0 0 0 0 0 0 0 0 0 0 0 0 0 0 0 0 0 0 0 0 0 0 0 0 0 0 0 0 0 0 0 0 0 0 0 0
0 0 0 0 0 0 0 0 0 0 0 0 0 0 0 0 0 0 0 0 0 0 0 0 0 0 0 0 0 0 0 0 0 0 0 0 0 0
0 0 0 0 0 0 0 0 0 0 0 0 0 0 0 0 0 0 0 0 0 0 0 0 0 0 0 0 0 0 0 0 0 0 0 0 0 0
0 0 0 0 0 0 0 0 0 0 0 0 0 0 0 0 0 0 0 0 0 0 0 0 0 0 0 0 0 0 0 0 0 0 0 0 0 0
0 0 0 0 0 0 0 0 0 0 0 0 0 0 0 0 0 0 0 0 0 0 0 0 0 0 0 0 0 0 0 0 0 0 0 0 0 0
0 0 0 0 0 0 0 0 0 0 0 0 0 0 0 0 0 0 0 0 0 0 0 0 0 0 0 0 0 0 0 0 0 0 0 0 0 0
0 0 0 0 0 0 0 0 0 0 0 0 0 0 0 0 0 0 0 0 0 0 0 0 0 0 0 0 0 0 0 0 0 0 0 0 0 0
0 0 0 0 0 0 0 0 0 0 0 0 0 0 0 0 0 0 0 0 0 0 0 0 0 0 0 0 0 0 0 0 0 0 0 0 0 0
0 0 0 0 0 0 0 0 0 0 0 0 0 0 0 0 0 0 0 0 0 0 0 0 0 0 0 0 0 0 0 0 0 0 0 0 0 0
Wind_Speed
4 4 3 3 3 3 3 2 2 1 2 3 2 1 0 3 2 3 3 7 8 8 9 10 10 10 10 11 12 12 12 12 12 11 11 13 13 15
3 4 4 3 4 4 4 3 3 3 2 3 2 2 2 1 1 2 3 3 4 5 7 9 10 11 11 12 13 13 13 14 13 13 14 15 14 16
3 5 5 5 4 4 4 4 4 3 3 2 1 2 2 1 1 1 1 2 3 2 4 8 10 12 12 13 13 13 13 14 14 15 16 16 16 16
3 3 3 3 4 3 3 4 5 5 4 3 2 1 0 2 3 1 1 2 2 4 7 8 10 11 12 12 13 13 15 15 15 15 15 15 15 15
4 2 1 2 3 0 2 3 2 3 4 3 3 1 1 0 2 3 1 1 0 1 4 6 8 9 10 11 12 13 13 12 13 13 13 12 12 11
5 5 5 4 2 0 2 3 3 2 2 2 1 1 1 1 3 2 2 2 3 3 2 0 2 5 8 9 9 9 11 12 12 11 10 10 9 8
6 6 6 7 8 6 3 2 1 0 1 2 1 1 0 2 3 1 1 0 1 3 2 2 3 2 2 1 4 7 12 13 13 12 11 9 7 5
7 6 7 7 7 9 10 10 7 4 2 1 1 1 2 3 2 1 1 0 1 1 2 1 2 3 4 5 8 9 7 6 9 10 8 6 5 5
6 6 7 7 6 6 9 11 11 11 8 3 3 3 2 3 2 2 3 1 1 1 1 0 1 2 3 5 8 8 9 7 2 2 6 7 7 7
6 6 6 6 7 7 8 8 8 8 8 5 3 3 2 3 3 2 2 3 2 1 2 1 1 1 1 4 6 7 9 9 6 1 3 5 7 9
5 6 7 7 8 8 7 6 6 6 6 5 5 4 3 1 2 1 1 1 1 2 3 2 1 2 0 1 3 6 7 7 5 1 1 2 1 2
4 5 6 6 6 6 6 5 6 6 6 5 5 4 3 3 3 2 0 2 1 1 2 2 2 2 1 1 2 5 6 6 3 2 1 1 2 2
2 3 4 5 4 4 3 3 2 1 3 4 4 4 4 4 4 4 3 1 1 0 2 2 1 1 1 3 4 4 4 6 5 4 2 1 4 4
1 2 3 6 5 4 2 1 0 0 2 3 4 4 4 4 4 4 3 3 3 3 4 4 4 4 3 3 4 5 4 4 6 5 4 1 3 5
4 4 5 6 4 3 4 3 1 1 1 2 2 2 2 3 4 3 3 3 3 5 6 6 4 3 2 2 2 4 5 4 6 5 5 4 3 2
4 5 4 3 4 4 4 3 3 1 1 1 1 1 2 2 3 2 2 2 2 3 4 5 5 3 3 4 4 4 5 4 6 6 5 5 6 5
4 3 2 2 3 3 3 4 4 3 2 2 3 2 1 1 1 2 1 1 1 1 2 3 3 3 3 3 4 5 5 6 6 7 7 6 6 5
1 1 2 1 2 3 4 4 3 2 3 3 3 4 4 3 3 2 2 2 2 2 1 1 2 2 3 4 4 4 5 4 5 6 7 7 7 7
1 2 2 2 2 2 3 3 3 4 4 3 4 5 6 5 5 4 3 3 3 3 2 2 1 1 2 2 2 3 3 3 4 7 7 5 5 7
2 2 3 3 3 3 3 4 4 5 4 4 4 5 6 6 6 6 6 5 4 3 3 3 3 3 3 2 1 1 1 2 4 5 5 4 5 5
2 3 4 4 4 4 4 5 5 5 5 5 5 5 5 7 7 7 7 6 6 5 5 5 3 1 1 2 2 1 1 2 2 2 4 6 7 6
2 3 4 5 5 5 5 5 5 4 4 4 5 4 4 6 7 7 7 7 6 7 6 4 3 4 4 4 4 2 0 1 1 4 4 3 4 6
1 1 1 2 3 4 5 6 5 4 4 4 5 4 3 4 4 4 5 6 7 7 6 6 5 3 2 3 3 2 1 1 2 2 2 2 5 8
Wind_Direction
226 220 212 197 204 202 193 192 230 281 292 290 279 295 25 88 106 104 101 118 142 162 178 180 179 185 196 203 207 210 219 230 237 244 250 256 262 265
215 209 203 185 214 217 209 204 209 188 233 250 283 343 340 119 151 142 123 128 161 183 187 187 188 195 204 208 208 208 216 226 232 238 244 248 250 252
255 226 215 188 213 215 206 200 214 191 203 237 259 339 25 175 183 261 330 346 339 308 215 204 203 209 212 213 212 209 214 225 229 233 240 243 244 248
332 300 261 213 218 236 226 215 212 208 200 222 225 304 73 181 138 160 266 238 238 217 212 214 220 223 220 217 215 214 217 221 226 232 239 242 244 246
24 354 3 176 176 93 319 282 238 211 203 200 213 168 284 329 110 105 79 338 54 225 218 222 228 236 235 229 220 218 221 226 231 235 241 245 247 251
52 56 64 80 96 33 321 293 252 219 199 172 181 180 222 29 52 82 95 28 41 60 77 119 236 239 238 237 233 221 219 226 230 234 244 247 249 248
44 43 48 66 74 66 54 46 182 167 83 110 139 255 249 79 64 32 104 18 62 19 15 60 44 40 46 290 263 237 220 215 217 222 225 231 235 231
46 32 34 49 71 65 60 57 50 42 27 62 78 16 1 36 44 353 31 32 184 71 5 3 58 54 47 46 23 355 302 245 216 219 213 213 198 187
60 50 41 25 43 59 58 54 48 42 35 38 70 39 3 5 16 13 358 316 260 352 56 225 357 118 68 42 38 24 15 20 334 247 188 168 167 167
54 61 63 44 38 59 67 57 43 29 15 21 66 73 36 360 13 6 323 278 277 7 15 153 16 339 73 77 34 38 36 38 39 1 210 193 168 161
37 41 50 49 41 62 67 56 40 15 4 29 53 68 52 349 320 332 325 331 38 23 12 7 340 291 49 50 34 32 37 40 17 0 224 205 225 175
26 28 46 54 45 57 72 59 42 7 2 26 28 30 40 40 18 354 4 77 63 359 355 322 294 309 337 263 355 25 20 25 348 321 294 195 190 244
31 17 14 30 46 38 25 37 53 1 27 30 15 16 22 26 23 15 8 359 117 150 338 311 274 305 29 348 349 13 20 7 358 357 351 229 208 232
29 349 343 2 12 17 14 325 245 296 45 26 12 4 7 9 358 355 11 30 44 26 358 348 352 16 23 18 345 342 4 11 3 357 9 79 201 231
339 341 348 359 12 23 35 36 6 4 25 28 8 346 337 331 330 337 2 21 34 33 29 16 10 32 27 36 16 349 349 350 358 358 1 26 33 1
340 343 7 38 37 8 353 16 19 351 279 271 262 286 315 338 345 348 3 7 34 26 31 33 31 56 82 60 54 47 29 19 359 358 358 24 40 23
338 345 349 8 359 354 340 350 356 355 326 285 265 266 276 270 282 304 308 345 69 358 347 2 35 66 71 66 53 40 38 44 28 8 12 31 41 21
337 322 295 310 319 321 324 330 330 335 319 290 269 255 241 219 214 227 258 268 251 223 233 327 345 40 75 76 43 38 45 41 28 27 28 22 24 26
288 256 268 283 284 289 301 301 295 303 300 279 269 259 248 228 198 197 213 238 253 254 236 213 223 166 129 105 70 13 37 48 35 33 27 14 359 356
2 329 323 316 311 304 295 285 282 288 292 290 273 256 234 222 206 193 202 216 219 227 214 204 219 211 193 156 129 67 327 3 42 36 18 356 331 314
9 350 343 338 336 326 311 291 276 276 288 291 278 264 237 221 223 210 198 205 199 200 207 205 204 193 152 152 168 140 132 227 273 359 8 354 350 352
64 23 358 350 347 340 328 313 298 289 295 305 300 284 253 224 223 212 197 188 206 207 204 186 160 168 181 183 170 162 38 354 245 232 245 269 320 336
145 345 346 339 347 352 347 343 346 349 338 334 321 312 273 239 227 234 240 221 198 200 191 179 173 172 174 165 157 149 135 22 356 346 332 260 261 268